Morristown, NJ

2:46 PM EDT on August 23, 2017 (GMT -0400)
Morristown Municipal

Weather History for KMMU - November, 2013

Change the Weather History Date:

Wednesday, November 27, 2013

  Actual Average Record
Temperature  
Mean Temperature 48 °F -  
Max Temperature 60 °F 51 °F 107 °F (2002)
Min Temperature 35 °F 29 °F 1 °F (1938)
Degree Days  
Heating Degree Days 18    
Moisture  
Dew Point 40 °F    
Average Humidity 81    
Maximum Humidity 94    
Minimum Humidity 52    
Precipitation  
Precipitation 1.45 in - - ()
Sea Level Pressure  
Sea Level Pressure 29.54 in    
Wind  
Wind Speed 7 mph (NNW)    
Max Wind Speed 16 mph    
Max Gust Speed 30 mph    
Visibility 6 miles    
Events Rain    
Averages and records for this station are not official NWS values.
T = Trace of Precipitation, MM = Missing Value Source: NWS Daily Summary

Daily Weather History Graph

Daily Weather History Graph

Search for Another Location

Airport or City:

Trip Planner

Search our weather history database for the weather conditions in past years. The results will help you decide how hot, cold, wet, or windy it might be!

Date:

Astronomy

Nov. 27, 2013 Rise Set
Actual Time 6:58 AM EST 4:31 PM EST
Civil Twilight 6:28 AM EST 5:02 PM EST
Nautical Twilight 5:54 AM EST 5:35 PM EST
Astronomical Twilight 5:21 AM EST 6:08 PM EST
Moon 12:56 AM EST (11/27) 1:09 PM EST (11/27)
Length of Visible Light 10h 33m
Length of Day
9h 33m
Waning Crescent, 32% of the Moon is Illuminated
Nov 27
Waning Crescent
Dec 2
New
Dec 9
First Quarter
Dec 17
Full
Dec 25
Last Quarter

Hourly Weather History & Observations

Time (EST) Temp. Windchill Dew Point Humidity Pressure Visibility Wind Dir Wind Speed Gust Speed Precip Events Conditions
12:15 AM 44.6 °F 40.7 °F 41.0 °F 87% 29.73 in 2.0 mi NNE 6.9 mph - 0.08 in Rain Heavy Rain
12:35 AM 44.6 °F 41.4 °F 42.8 °F 93% 29.72 in 2.0 mi NNE 5.8 mph - 0.15 in Rain Heavy Rain
12:55 AM 46.4 °F 43.5 °F 42.8 °F 87% 29.68 in 2.5 mi NNE 5.8 mph - 0.03 in Rain Heavy Rain
1:15 AM 46.4 °F 44.3 °F 44.6 °F 93% 29.67 in 1.8 mi NNE 4.6 mph - 0.13 in Rain Light Rain
1:35 AM 46.4 °F 43.5 °F 44.6 °F 93% 29.64 in 2.0 mi NE 5.8 mph - 0.26 in Rain Heavy Rain
1:55 AM 48.2 °F - 46.4 °F 93% 29.60 in 4.0 mi NE 6.9 mph - 0.02 in Rain Heavy Rain
2:15 AM 48.2 °F - 46.4 °F 93% 29.56 in 2.0 mi NNE 5.8 mph - 0.16 in Rain Light Rain
2:35 AM 53.6 °F - 51.8 °F 94% 29.52 in 4.0 mi SE 4.6 mph - 0.26 in Rain Heavy Rain
2:55 AM 59.0 °F - 57.2 °F 94% 29.49 in 4.0 mi SE 9.2 mph - 0.03 in Rain Heavy Rain
3:15 AM 59.0 °F - 57.2 °F 94% 29.47 in 4.0 mi SSE 4.6 mph - 0.12 in Rain Heavy Rain
3:35 AM 60.8 °F - 57.2 °F 88% 29.45 in 3.0 mi Calm Calm - 0.20 in Rain Heavy Rain
3:55 AM 60.8 °F - 59.0 °F 94% 29.43 in 3.0 mi SSE 3.5 mph - 0.03 in Rain Heavy Rain
4:15 AM 60.8 °F - 59.0 °F 94% 29.41 in 3.0 mi WNW 4.6 mph - 0.17 in Rain Heavy Rain
4:35 AM 59.0 °F - 57.2 °F 94% 29.42 in 1.8 mi Calm Calm - 0.48 in Rain Heavy Rain
4:55 AM 59.0 °F - 57.2 °F 94% 29.41 in 1.5 mi Calm Calm - 0.03 in Rain Heavy Rain
5:15 AM 59.0 °F - 57.2 °F 94% 29.40 in 1.2 mi Calm Calm - 0.10 in Rain Heavy Rain
5:35 AM 59.0 °F - 57.2 °F 94% 29.39 in 1.8 mi Calm Calm - 0.22 in Rain Rain
6:45 AM 60.8 °F - 59.0 °F 94% 29.39 in 3.0 mi WSW 11.5 mph - N/A Rain Light Rain
7:45 AM 53.6 °F - 50.0 °F 88% 29.42 in 7.0 mi NW 10.4 mph 20.7 mph N/A   Overcast
8:45 AM 50.0 °F - 46.4 °F 87% 29.46 in 2.5 mi NW 6.9 mph - N/A Rain Light Rain
10:45 AM 44.6 °F 39.7 °F 41.0 °F 87% 29.43 in 4.0 mi NNW 9.2 mph 16.1 mph N/A   Overcast
11:45 AM 42.8 °F 38.6 °F 37.4 °F 81% 29.43 in 15.0 mi NNW 6.9 mph 13.8 mph N/A   Overcast
12:45 PM 41.0 °F 35.2 °F 35.6 °F 81% 29.41 in 10.0 mi North 9.2 mph 19.6 mph N/A   Overcast
1:45 PM 41.0 °F 35.2 °F 35.6 °F 81% 29.44 in 10.0 mi North 9.2 mph 17.3 mph N/A Rain Light Rain
2:45 PM 39.2 °F 33.0 °F 35.6 °F 87% 29.41 in 15.0 mi North 9.2 mph 18.4 mph N/A   Overcast
3:45 PM 39.2 °F 33.6 °F 33.8 °F 81% 29.42 in 10.0 mi North 8.1 mph 21.9 mph N/A Rain Light Rain
4:45 PM 37.4 °F 31.4 °F 33.8 °F 87% 29.43 in 10.0 mi NNW 8.1 mph 25.3 mph N/A Rain Light Rain
5:45 PM 37.4 °F 30.8 °F 32.0 °F 81% 29.49 in 7.0 mi WNW 9.2 mph 29.9 mph N/A Rain Light Rain
6:45 PM 37.4 °F 30.8 °F 32.0 °F 81% 29.54 in 7.0 mi WNW 9.2 mph 16.1 mph N/A Rain Light Rain
7:45 PM 37.4 °F 28.5 °F 30.2 °F 75% 29.57 in 7.0 mi NW 15.0 mph 27.6 mph N/A   Overcast
8:45 PM 35.6 °F 25.9 °F 26.6 °F 70% 29.63 in 10.0 mi NNW 16.1 mph 25.3 mph N/A   Overcast
9:45 PM 35.6 °F 27.5 °F 23.0 °F 60% 29.66 in 10.0 mi NNW 11.5 mph 21.9 mph N/A   Overcast
9:55 PM 37.4 °F 28.5 °F 23.0 °F 56% 29.67 in 10.0 mi West 15.0 mph 24.2 mph N/A   Overcast
10:15 PM 37.4 °F 28.2 °F 21.2 °F 52% 29.69 in 10.0 mi WNW 16.1 mph 24.2 mph N/A   Overcast
10:35 PM 37.4 °F 29.8 °F 21.2 °F 52% 29.70 in 10.0 mi WNW 11.5 mph 20.7 mph N/A   Overcast
10:55 PM 37.4 °F 28.9 °F 21.2 °F 52% 29.72 in 10.0 mi West 13.8 mph 25.3 mph N/A   Overcast
11:15 PM 35.6 °F 26.6 °F 21.2 °F 56% 29.73 in 10.0 mi WNW 13.8 mph 21.9 mph N/A   Overcast
11:35 PM 35.6 °F 26.6 °F 21.2 °F 56% 29.75 in 10.0 mi WNW 13.8 mph 21.9 mph N/A   Mostly Cloudy
11:55 PM 35.6 °F 27.5 °F 19.4 °F 52% 29.77 in 10.0 mi WNW 11.5 mph 25.3 mph N/A   Mostly Cloudy